Lid_Strength_Index
6 5 3 2 2 2 3 2 2 2 3 6 7 8 9 9 9 9 9 9 9 10 10 10 11 11 11 11 11 11 11 11 11 11 10 11 11 12 12 12 12 12 12
6 6 5 3 2 2 2 3 2 3 4 5 6 7 8 9 9 9 10 9 10 10 10 10 11 11 12 12 12 11 12 12 12 12 11 12 11 12 12 12 12 13 12
8 7 6 4 3 2 2 2 2 3 4 4 5 7 8 9 10 10 10 9 10 10 10 10 11 11 11 12 12 12 12 12 13 13 13 13 13 14 12 13 13 13 13
7 7 6 5 4 3 2 2 2 3 3 4 6 7 9 11 10 10 10 10 10 10 10 11 11 11 12 12 12 12 12 12 13 13 14 13 14 15 15 13 13 13 13
7 7 6 5 4 3 2 2 2 3 3 4 5 7 8 9 9 10 10 11 11 11 11 11 11 12 12 12 13 13 13 13 13 13 14 14 14 14 16 16 14 13 12
7 7 6 5 5 4 2 2 2 3 4 4 5 7 8 9 10 10 11 11 11 11 11 11 12 12 13 13 14 14 13 13 13 13 14 14 15 15 15 16 15 15 13
6 7 8 6 5 5 3 3 3 4 4 5 6 7 7 8 9 10 10 11 11 11 12 12 12 13 13 13 14 14 14 14 14 14 15 15 15 14 15 16 16 16 14
7 6 7 6 5 5 4 4 4 4 5 6 6 7 6 7 9 9 10 10 11 11 11 12 13 13 13 14 14 14 14 14 14 15 15 15 15 15 15 15 16 17 16
7 7 6 5 5 4 4 4 5 5 5 6 6 7 7 7 8 9 9 10 10 11 12 12 13 14 14 14 15 14 14 14 14 14 15 15 15 15 14 15 15 16 19
9 8 7 6 5 4 4 4 5 5 6 6 6 7 7 7 8 9 10 10 11 12 12 13 13 14 15 15 15 15 15 14 14 15 15 15 15 15 14 14 14 14 16
8 8 8 7 6 5 4 5 5 5 6 6 6 7 7 8 8 9 10 10 11 12 13 13 14 15 15 15 15 15 15 15 15 15 16 16 15 15 14 14 14 14 14
8 9 9 8 6 6 6 6 5 6 6 6 7 7 8 8 9 10 10 11 12 12 13 14 14 15 15 15 16 16 15 15 15 15 15 15 15 14 14 13 14 14 13
9 8 8 8 7 6 6 6 6 6 6 7 7 8 9 9 10 10 11 12 12 13 14 14 15 16 16 16 16 15 15 15 15 15 15 15 14 14 14 14 14 13 13
9 9 9 8 8 7 7 7 7 6 7 7 8 9 9 10 10 11 12 12 13 14 15 15 15 16 16 16 16 15 15 15 15 14 15 14 14 14 14 14 13 13 13
15 12 10 9 9 8 8 8 7 8 8 8 9 10 10 10 11 12 13 13 14 15 16 17 17 17 17 16 15 15 15 14 14 14 14 14 13 14 13 13 12 12 12
16 16 14 10 11 10 9 9 10 10 10 10 11 11 11 12 13 13 14 14 16 17 17 18 18 18 18 15 14 14 14 14 14 14 14 14 14 13 12 12 12 11 12
17 16 15 13 10 11 10 11 11 11 11 12 12 12 13 13 14 14 15 16 18 18 18 18 18 18 17 14 13 13 13 14 14 14 14 14 13 13 13 12 11 11 10
17 16 15 14 10 11 11 11 11 12 12 13 14 14 14 15 15 16 16 17 18 18 19 19 18 18 17 14 14 13 13 14 14 14 14 13 13 13 13 12 12 12 11
16 17 16 13 11 12 12 12 12 12 13 14 14 14 15 15 16 16 17 18 18 19 19 18 18 18 17 14 14 14 14 14 14 14 13 13 13 12 12 12 13 12 12
15 17 16 14 12 13 13 13 13 13 14 14 15 15 15 15 16 17 18 18 19 19 18 18 18 17 17 15 14 14 14 14 14 14 13 13 13 12 12 12 13 13 13
16 15 16 15 14 14 13 14 15 15 14 15 15 15 15 16 17 18 18 19 19 19 19 19 18 18 16 15 14 14 14 14 14 14 14 13 12 12 12 12 13 13 12
17 16 16 16 14 14 14 15 15 15 15 15 16 16 17 18 18 19 19 18 19 19 19 19 19 17 16 15 14 14 14 13 14 14 14 13 13 12 12 12 12 12 12
17 17 16 16 15 15 15 16 16 16 16 17 17 18 18 18 18 19 19 19 19 19 19 18 18 18 16 15 14 14 14 14 14 14 13 14 13 13 13 13 12 13 13
18 17 17 18 17 16 16 17 16 17 17 18 18 18 18 18 18 18 18 19 19 18 18 18 18 17 16 15 14 14 14 14 14 14 14 15 14 14 14 14 13 14 13
18 18 18 18 18 18 17 17 17 17 18 18 18 18 18 19 19 18 18 17 16 16 17 17 16 16 16 15 14 14 14 14 14 15 15 15 16 16 15 15 14 14 14
18 18 18 18 18 18 18 17 17 17 18 18 18 19 19 18 18 17 17 15 14 14 14 14 14 14 14 14 14 15 15 14 15 16 16 17 16 16 16 16 16 15 15